Date,TemperatureHighF,TemperatureAvgF,TemperatureLowF,DewpointHighF,DewpointAvgF,DewpointLowF,HumidityHigh,HumidityAvg,HumidityLow,PressureMaxIn,PressureMinIn,WindSpeedMaxMPH,WindSpeedAvgMPH,GustSpeedMaxMPH,PrecipitationSumIn
2013-9-1,75.3,74.8,73.0,71.6,70.8,68.9,89,88,85,29.98,29.92,5,2,5,0.00
2013-9-2,75.1,75.1,75.1,71.6,71.6,71.6,89,89,89,29.98,29.98,2,2,2,0.00
2013-9-3,75.1,75.1,75.1,71.6,71.6,71.6,89,89,89,29.98,29.98,2,2,2,0.00
2013-9-4,75.1,75.1,75.1,71.6,71.6,71.6,89,89,89,29.98,29.98,2,2,2,0.00
2013-9-5,75.1,75.1,75.1,71.6,71.6,71.6,89,89,89,29.98,29.98,2,2,2,0.00
2013-9-6,75.1,75.1,75.1,71.6,71.6,71.6,89,89,89,29.98,29.98,2,2,2,0.00
2013-9-7,75.1,75.1,75.1,71.6,71.6,71.6,89,89,89,29.98,29.98,2,2,2,0.00
2013-9-8,75.1,75.1,75.1,71.6,71.6,71.6,89,89,89,29.98,29.98,2,2,2,0.00
2013-9-9,92.5,83.1,75.1,77.7,74.4,71.6,89,76,59,30.03,29.97,17,5,16,0.00
2013-9-10,91.7,84.1,78.3,77.2,73.9,70.5,85,72,59,30.09,29.99,20,7,20,0.01
2013-9-11,92.3,84.3,78.3,78.4,75.5,73.1,85,75,61,30.08,30.00,17,6,17,0.00
2013-9-12,90.3,80.3,75.2,79.2,74.3,71.1,88,82,67,30.02,29.90,12,2,12,0.04
2013-9-13,93.3,81.7,73.1,79.3,73.9,69.7,90,78,60,29.91,29.80,12,2,12,0.00
2013-9-14,93.0,83.1,76.1,80.8,75.8,71.9,88,79,63,29.98,29.83,13,4,13,0.02
2013-9-15,91.0,81.3,75.1,81.5,75.5,70.6,90,83,73,30.07,29.96,17,4,17,0.65
2013-9-16,92.3,81.4,73.7,79.2,74.2,69.8,89,79,63,30.07,29.99,15,4,15,0.00
2013-9-17,90.7,82.5,77.2,78.9,74.9,72.0,87,78,61,30.06,29.96,21,6,21,0.22
2013-9-18,88.0,81.3,76.2,78.2,74.6,71.7,87,80,72,30.03,29.95,20,7,20,0.74
2013-9-19,91.2,82.7,78.5,78.0,74.2,69.8,86,76,61,30.04,29.96,17,7,17,0.00
2013-9-20,89.8,82.6,78.0,74.7,71.2,67.8,78,69,56,30.03,29.91,15,6,15,0.00
2013-9-21,91.0,81.1,71.8,74.4,71.7,67.7,88,74,57,29.94,29.77,12,3,12,0.00
2013-9-22,93.5,80.5,74.2,76.7,72.8,69.9,88,78,54,29.85,29.75,24,4,24,0.03
2013-9-23,89.5,78.3,74.3,79.8,73.5,70.5,89,86,71,29.97,29.84,14,3,14,2.13
2013-9-24,87.9,79.1,74.2,78.5,73.9,70.1,89,85,71,29.96,29.84,13,4,14,0.13
2013-9-25,83.5,78.0,74.0,73.5,71.8,69.9,88,82,70,29.84,29.78,20,6,20,0.01
2013-9-26,92.5,81.0,75.3,79.0,73.7,70.2,88,79,49,29.85,29.75,18,7,18,0.00
2013-9-27,86.7,76.6,71.8,75.5,71.1,67.8,89,83,69,29.94,29.83,15,3,15,0.03
2013-9-28,88.8,78.6,72.4,77.4,71.2,68.5,89,79,63,30.00,29.90,20,5,20,0.22
2013-9-29,89.8,79.1,71.6,76.2,70.9,67.2,87,77,57,29.98,29.90,16,3,16,0.01
2013-9-30,90.0,79.0,70.2,75.4,71.1,66.1,89,78,58,30.01,29.91,14,3,14,0.00